[[{"header":{"parameterUnit":"m.s-1","parameterCategory":1,"la1":30.2991,"la2":30.254,"lo1":-89.0895,"lo2":-89.0444,"dy":0.0017,"dx":0.0017,"nx":28,"ny":28,"refTime":"2025-11-29T03:00:00:Z","depth":0,"parameterNumber":2,"parameterNumberName":"U-component_of_WINDS"},"data":[0,0,0,0,0,0,0,0,0,0,0,0,0,0,0,0,0,0,0,0,0,0,0,0,0,0,0,0,0,0,0,0,0,0,0,0,0,0,0,0,0,0,0,0,0,0,0,0,0,0,0,0,0,0,0,0,0,0,-3.3046,-3.3047,0,-3.3103,-3.3103,-3.3104,-3.3001,-3.2998,-3.2995,-3.2991,-3.3048,-3.3052,-3.3057,0,0,0,0,0,0,0,0,0,0,0,0,0,-3.2847,-3.2852,-3.3046,-3.3047,-3.3048,-3.3103,-3.3103,-3.3104,-3.3002,-3.2998,-3.2994,-3.299,-3.3046,-3.3052,-3.3057,0,0,0,0,0,0,0,0,0,0,0,0,0,-3.2922,-3.2853,-3.3046,-3.3003,-3.3,-3.3102,-3.3103,-3.3104,-3.3003,-3.2998,-3.2993,-3.2988,-3.3044,-3.3051,-3.3058,-3.3204,0,0,-3.308,-3.3083,0,0,0,0,0,0,0,0,-3.2918,-3.2929,-3.3009,-3.3007,-3.3003,-3.304,-3.3054,-3.3138,-3.3004,-3.3002,-3.2991,-3.2985,-3.3049,-3.3055,-3.3077,-3.3207,-3.3209,-3.308,-3.3084,-3.3087,-3.3089,0,0,0,0,0,0,0,-3.2913,-3.2926,-3.3068,-3.301,-3.3007,-3.298,-3.2985,-3.3069,-3.3054,-3.3002,-3.2994,-3.3002,-3.3046,-3.3071,-3.3078,-3.321,-3.308,-3.3086,-3.3091,-3.3093,-3.3459,-3.3464,0,0,0,0,0,0,-3.2913,-3.2923,-3.3067,-3.307,-3.2947,-3.2988,-3.2994,-3.3033,-3.3052,-3.305,-3.3007,-3.2997,-3.3061,-3.307,-3.3079,-3.3249,-3.3087,-3.3094,-3.3098,-3.3454,-3.346,-3.3466,0,0,0,0,0,0,-3.2909,-3.2927,-3.3064,-3.2994,-3.301,-3.2997,-3.3042,-3.3037,-3.3061,-3.3056,-3.3053,-3.3035,-3.3057,-3.3069,-3.3173,-3.325,-3.3097,-3.3104,-3.3447,-3.3456,-3.3463,-3.3593,0,0,0,0,0,0,-3.2904,-3.2926,-3.2983,-3.2997,-3.3014,-3.3159,-3.3047,-3.3042,-3.3074,-3.3062,-3.3081,-3.308,-3.3054,-3.3163,-3.318,-3.3257,-3.3109,-3.344,-3.3451,-3.3461,-3.3581,-3.3604,-3.3624,0,0,0,0,0,-3.2897,-3.3017,-3.2986,-3.3004,-3.3084,-3.3164,-3.3173,-3.3142,-3.308,-3.3136,-3.3132,-3.3079,-3.3239,-3.3175,-3.3193,-3.3273,-3.3435,-3.3448,-3.346,-3.3572,-3.36,-3.3623,0,0,0,0,0,0,-3.3013,-3.3018,-3.2984,-3.3112,-3.3138,-3.3146,-3.3216,-3.3173,-3.3217,-3.3205,-3.3163,-3.3169,-3.328,-3.3287,-3.3215,-3.3414,-3.3326,-3.3343,-3.3405,-3.3432,-3.3453,-3.3448,-3.3115,0,0,0,0,0,-3.3053,-3.3118,-3.3119,-3.3232,-3.3246,-3.3229,-3.3262,-3.3236,-3.3261,-3.3272,-3.3276,-3.3302,-3.3357,-3.3395,-3.3446,-3.3582,-3.3583,-3.3646,-3.3667,-3.3684,-3.3699,-3.3768,-3.3795,-3.3507,-3.3507,-3.3506,0,0,-3.3137,-3.3148,-3.3192,-3.3255,-3.3272,-3.3339,-3.3239,-3.3314,-3.3363,-3.3283,-3.3381,-3.3385,-3.3411,-3.353,-3.3583,-3.3539,-3.3779,-3.37,-3.3714,-3.3719,-3.3784,-3.3811,-3.3836,-3.3515,-3.3514,-3.3512,0,0,-3.3324,-3.334,-3.3434,-3.3453,-3.348,-3.3467,-3.349,-3.3504,-3.3504,-3.3601,-3.3542,-3.3599,-3.3697,-3.3717,-3.374,-3.3932,-3.3884,-3.395,-3.406,-3.4129,-3.4151,-3.4171,-3.4238,-3.4263,-3.3965,-3.3965,-3.3965,0,-3.3425,-3.3524,-3.3488,-3.3567,-3.3596,-3.3526,-3.362,-3.364,-3.3683,-3.3704,-3.3654,-3.3773,-3.3786,-3.3908,-3.3955,-3.3977,-3.4,-3.3947,-3.4151,-3.4171,-3.4189,-3.4252,-3.4277,-3.3973,-3.3972,-3.3971,-3.397,0,-3.3645,-3.3714,-3.3787,-3.3829,-3.3866,-3.3953,-3.3929,-3.3971,-3.3941,-3.3933,-3.4032,-3.4044,-3.4096,-3.4123,-3.4095,-3.4241,-3.4212,-3.4158,-3.4069,-3.4225,-3.4283,-3.4307,-3.3984,-3.3981,-3.3979,-3.3977,0,0,-3.3907,-3.3927,-3.3955,-3.3972,-3.3995,-3.4048,-3.413,-3.418,-3.4215,-3.4247,-3.4313,-3.4397,-3.4345,-3.4372,-3.4345,-3.4405,-3.4554,-3.4343,-3.4342,-3.438,-3.4713,-3.4753,-3.4781,-3.4522,-3.4527,-3.453,-3.471,0,-3.4091,-3.4233,-3.4202,-3.4341,-3.4403,-3.4337,-3.4408,-3.443,-3.4425,-3.4475,-3.4469,-3.4528,-3.4457,-3.4472,-3.4529,-3.4524,-3.462,-3.4511,-3.4582,-3.4585,-3.4577,-3.4812,-3.4855,-3.5024,-3.4733,-3.4737,-3.474,0,-3.4325,-3.4364,-3.4509,-3.4521,-3.4546,-3.461,-3.4652,-3.4703,-3.4725,-3.4716,-3.4745,-3.4706,-3.4786,-3.4697,-3.4805,-3.4731,-3.4758,-3.476,-3.4766,-3.477,-3.4671,-3.4822,-3.5078,-3.5103,-3.4776,-3.4773,-3.477,0,-3.4499,-3.4588,-3.4686,-3.4703,-3.4719,-3.4766,-3.4775,-3.4792,-3.4823,-3.486,-3.4879,-3.4926,-3.495,-3.4986,-3.496,-3.4898,-3.5071,-3.4981,-3.5065,-3.5066,-3.5104,-3.5102,-3.5366,-3.5124,-3.5124,-3.5123,-3.5123,0,-3.4707,-3.4798,-3.4764,-3.4824,-3.4923,-3.4886,-3.4985,-3.4986,-3.5002,-3.5059,-3.5005,-3.5061,-3.5023,-3.5075,-3.5055,-3.5146,-3.5158,-3.5152,-3.5145,-3.5156,-3.5157,-3.5173,-3.516,-3.513,-3.5129,-3.5127,-3.5126,0,-3.4918,-3.4899,-3.5001,-3.5007,-3.5011,-3.5084,-3.5089,-3.5143,-3.5133,-3.5207,-3.5222,-3.5206,-3.5264,-3.5241,-3.5303,-3.5289,-3.5406,-3.5384,-3.5398,-3.5392,-3.5477,-3.5469,-3.576,-3.5796,-3.5533,-3.5535,-3.5537,0,-3.5051,-3.5119,-3.5133,-3.5168,-3.518,-3.5237,-3.5269,-3.5235,-3.5269,-3.5299,-3.535,-3.5403,-3.5443,-3.5539,-3.5532,-3.5578,-3.5556,-3.5655,-3.5563,-3.5571,-3.5555,-3.5551,-3.5557,-3.5673,-3.5676,-3.5679,-3.5681,0,-3.5289,-3.5276,-3.5323,-3.5367,-3.5406,-3.5439,-3.5467,-3.5499,-3.5466,-3.5507,-3.5566,-3.5597,-3.5659,-3.5712,-3.5753,-3.576,-3.5715,-3.571,-3.5732,-3.5743,-3.5747,-3.5744,-3.5447,-3.5703,-3.5701,-3.57,-3.5698,-3.5697,-3.5464,-3.552,-3.5538,-3.5592,-3.5609,-3.5636,-3.5688,-3.5683,-3.5732,-3.5779,-3.5756,-3.5824,-3.5841,-3.5891,-3.5905,-3.5956,-3.5917,-3.5949,-3.5957,-3.5965,-3.5975,-3.574,-3.5964,-3.5963,-3.5962,-3.5962,-3.5961,0,-3.5697,-3.5704,-3.5755,-3.5795,-3.5837,-3.5791,-3.5819,-3.5857,-3.5917,-3.5938,-3.5979,-3.6044,-3.6095,-3.6092,-3.6138,-3.6179,-3.6159,-3.6192,-3.6188,-3.619,-3.6008,-3.5984,-3.6207,-3.6207,-3.6207,-3.6207,-3.6207,-3.6207,-3.5823,-3.5915,-3.5904,-3.6004,-3.601,-3.6076,-3.6095,-3.6119,-3.6136,-3.6212,-3.6253,-3.6251,-3.6261,-3.6307,-3.6351,-3.6348,-3.6367,-3.6407,-3.6397,-3.6227,-3.6203,-3.618,-3.6157,-3.6412,-3.6412,-3.6574,-3.6575,-3.6576]},{"header":{"parameterUnit":"m.s-1","parameterCategory":1,"la1":30.2991,"la2":30.254,"lo1":-89.0895,"lo2":-89.0444,"dy":0.0017,"dx":0.0017,"nx":28,"ny":28,"refTime":"2025-11-29T03:00:00:Z","depth":0,"parameterNumber":3,"parameterNumberName":"V-component_of_WINDS"},"data":[0,0,0,0,0,0,0,0,0,0,0,0,0,0,0,0,0,0,0,0,0,0,0,0,0,0,0,0,0,0,0,0,0,0,0,0,0,0,0,0,0,0,0,0,0,0,0,0,0,0,0,0,0,0,0,0,0,0,-4.0905,-4.0906,0,-4.098,-4.098,-4.0981,-4.0905,-4.0902,-4.0899,-4.0896,-4.0968,-4.0973,-4.0977,0,0,0,0,0,0,0,0,0,0,0,0,0,-4.0692,-4.0696,-4.0905,-4.0906,-4.0907,-4.0979,-4.098,-4.0981,-4.0905,-4.0901,-4.0898,-4.0894,-4.0967,-4.0972,-4.0978,0,0,0,0,0,0,0,0,0,0,0,0,0,-4.0777,-4.0697,-4.0905,-4.0878,-4.0876,-4.0979,-4.098,-4.0982,-4.0906,-4.0901,-4.0897,-4.0893,-4.0965,-4.0972,-4.0979,-4.1111,0,0,-4.1,-4.1003,0,0,0,0,0,0,0,0,-4.0772,-4.0785,-4.0881,-4.088,-4.0878,-4.0928,-4.0932,-4.1025,-4.0907,-4.0894,-4.0896,-4.0891,-4.0958,-4.0966,-4.0989,-4.1115,-4.1118,-4.1001,-4.1005,-4.1008,-4.101,0,0,0,0,0,0,0,-4.0766,-4.0781,-4.0934,-4.0882,-4.0881,-4.086,-4.0867,-4.0949,-4.095,-4.0895,-4.089,-4.09,-4.0957,-4.0983,-4.099,-4.1119,-4.1001,-4.1007,-4.1011,-4.1014,-4.1353,-4.1358,0,0,0,0,0,0,-4.0764,-4.0777,-4.0932,-4.0937,-4.0813,-4.0868,-4.0876,-4.0917,-4.0949,-4.095,-4.0904,-4.0896,-4.0973,-4.0982,-4.0993,-4.1148,-4.1008,-4.1015,-4.1019,-4.1348,-4.1354,-4.1359,0,0,0,0,0,0,-4.076,-4.0779,-4.0929,-4.0855,-4.0873,-4.0876,-4.0923,-4.092,-4.0946,-4.0956,-4.0955,-4.093,-4.097,-4.0983,-4.1082,-4.1149,-4.1018,-4.1024,-4.1343,-4.135,-4.1357,-4.146,0,0,0,0,0,0,-4.0754,-4.0778,-4.083,-4.0857,-4.0877,-4.1019,-4.0927,-4.0925,-4.0959,-4.095,-4.098,-4.0981,-4.0967,-4.1072,-4.1089,-4.1156,-4.103,-4.1337,-4.1346,-4.1355,-4.1451,-4.147,-4.1487,0,0,0,0,0,-4.0747,-4.0856,-4.0833,-4.0852,-4.0942,-4.1023,-4.1034,-4.1017,-4.0965,-4.1016,-4.1021,-4.098,-4.1139,-4.1083,-4.1101,-4.1172,-4.1332,-4.1343,-4.1354,-4.1443,-4.1467,-4.1486,0,0,0,0,0,0,-4.0835,-4.0859,-4.0834,-4.0955,-4.0988,-4.101,-4.1074,-4.1043,-4.109,-4.108,-4.1055,-4.1062,-4.1167,-4.1179,-4.1116,-4.13,-4.1227,-4.1242,-4.1288,-4.1311,-4.1328,-4.1323,-4.1036,0,0,0,0,0,-4.0869,-4.0934,-4.0951,-4.1056,-4.1074,-4.1071,-4.1106,-4.109,-4.1122,-4.1135,-4.1148,-4.118,-4.1236,-4.1275,-4.1328,-4.1453,-4.1457,-4.151,-4.1528,-4.1543,-4.1556,-4.162,-4.1643,-4.1395,-4.1395,-4.1394,0,0,-4.0939,-4.096,-4.1002,-4.1074,-4.1098,-4.1164,-4.1083,-4.1157,-4.1205,-4.1146,-4.124,-4.1251,-4.1284,-4.1396,-4.1446,-4.141,-4.1625,-4.1557,-4.1568,-4.1573,-4.1633,-4.1657,-4.1678,-4.1402,-4.1401,-4.14,0,0,-4.11,-4.1124,-4.1213,-4.1238,-4.1274,-4.1272,-4.1293,-4.132,-4.1325,-4.1419,-4.1375,-4.1431,-4.1531,-4.1556,-4.1581,-4.175,-4.1713,-4.1768,-4.1861,-4.1924,-4.1943,-4.1961,-4.2019,-4.204,-4.1781,-4.1781,-4.1781,0,-4.1182,-4.1281,-4.1262,-4.1339,-4.137,-4.132,-4.1409,-4.1434,-4.1486,-4.1508,-4.1466,-4.1588,-4.1608,-4.1724,-4.1765,-4.1788,-4.181,-4.1764,-4.1943,-4.196,-4.1975,-4.203,-4.2052,-4.1788,-4.1787,-4.1786,-4.1786,0,-4.1379,-4.1448,-4.1516,-4.1567,-4.1607,-4.1689,-4.168,-4.1722,-4.1702,-4.1703,-4.1798,-4.182,-4.1875,-4.1901,-4.1883,-4.2014,-4.199,-4.1947,-4.1872,-4.2006,-4.2056,-4.2078,-4.1797,-4.1794,-4.1792,-4.1791,0,0,-4.1598,-4.1637,-4.1662,-4.1684,-4.172,-4.1772,-4.1851,-4.1906,-4.1941,-4.1978,-4.2042,-4.2126,-4.2085,-4.2115,-4.2098,-4.2154,-4.2283,-4.2102,-4.2103,-4.2133,-4.2426,-4.2458,-4.2483,-4.2259,-4.2263,-4.2266,-4.2423,0,-4.1758,-4.1897,-4.1881,-4.2012,-4.2074,-4.2027,-4.2095,-4.2123,-4.2126,-4.2178,-4.218,-4.2239,-4.2182,-4.2199,-4.2252,-4.2256,-4.2341,-4.2245,-4.2316,-4.2319,-4.2308,-4.251,-4.2544,-4.269,-4.2443,-4.2446,-4.2449,0,-4.1964,-4.2008,-4.2146,-4.217,-4.2196,-4.2258,-4.2305,-4.2356,-4.2387,-4.2384,-4.2417,-4.239,-4.2466,-4.2392,-4.2495,-4.243,-4.2458,-4.2465,-4.247,-4.2474,-4.2391,-4.2518,-4.2737,-4.2758,-4.248,-4.2478,-4.2475,0,-4.2107,-4.2201,-4.2295,-4.2316,-4.2347,-4.2391,-4.2406,-4.2432,-4.2465,-4.2507,-4.2527,-4.2577,-4.2604,-4.2642,-4.2628,-4.2575,-4.2734,-4.2659,-4.2732,-4.2733,-4.2767,-4.2765,-4.2992,-4.2788,-4.2788,-4.2788,-4.2787,0,-4.2287,-4.2372,-4.236,-4.2417,-4.2511,-4.2491,-4.2583,-4.2592,-4.2615,-4.2672,-4.2634,-4.2688,-4.2667,-4.2719,-4.2709,-4.2795,-4.2808,-4.2807,-4.2802,-4.2809,-4.2809,-4.2826,-4.2815,-4.2793,-4.2792,-4.2791,-4.279,0,-4.2462,-4.2458,-4.2556,-4.2578,-4.2585,-4.2653,-4.267,-4.2723,-4.2722,-4.2794,-4.281,-4.2809,-4.2868,-4.2858,-4.2924,-4.2916,-4.3024,-4.3008,-4.3014,-4.3009,-4.3083,-4.3075,-4.3328,-4.3359,-4.3137,-4.3139,-4.3141,0,-4.2576,-4.2641,-4.2669,-4.2705,-4.2723,-4.2781,-4.2815,-4.2797,-4.2833,-4.2871,-4.2919,-4.2975,-4.3018,-4.3114,-4.3118,-4.3167,-4.3151,-4.3236,-4.3158,-4.3162,-4.315,-4.3146,-4.3151,-4.3251,-4.3254,-4.3256,-4.3258,0,-4.2778,-4.2773,-4.2823,-4.2873,-4.2914,-4.2952,-4.2986,-4.3017,-4.3002,-4.3044,-4.3105,-4.3138,-4.3205,-4.326,-4.3305,-4.3318,-4.3285,-4.3282,-4.3301,-4.3308,-4.3308,-4.3307,-4.3054,-4.3276,-4.3274,-4.3273,-4.3272,-4.3271,-4.2925,-4.2979,-4.3007,-4.3064,-4.3088,-4.312,-4.317,-4.3176,-4.3226,-4.3279,-4.3266,-4.3333,-4.3359,-4.3417,-4.3435,-4.3487,-4.3455,-4.3484,-4.349,-4.3497,-4.3505,-4.3301,-4.3495,-4.3494,-4.3494,-4.3494,-4.3493,0,-4.3123,-4.3139,-4.3192,-4.324,-4.3285,-4.3251,-4.3286,-4.3324,-4.3385,-4.3413,-4.3456,-4.3524,-4.3577,-4.3585,-4.3634,-4.3673,-4.3659,-4.3687,-4.3683,-4.3686,-4.3532,-4.3509,-4.3697,-4.3697,-4.3697,-4.3697,-4.3697,-4.3697,-4.3232,-4.3321,-4.3318,-4.3418,-4.3432,-4.3499,-4.3521,-4.355,-4.3572,-4.365,-4.3694,-4.3699,-4.3718,-4.3768,-4.3814,-4.3815,-4.3834,-4.3867,-4.3862,-4.3717,-4.3697,-4.3677,-4.3656,-4.3872,-4.3872,-4.4011,-4.4012,-4.4013]}]]